| time (UTC) | temp C | wind direction | speed KPH | gust KPH | rain 1hr cm | rain 24hr cm | rain mn cm | humidity % | barometer mb |
| 20260503201345 | 14 | 204 | 4.8 | 12.9 | 0.00 | 0.00 | 0.00 | 35 | 1012.4 |
| 20260503200843 | 14 | 169 | 3.2 | 16.1 | 0.00 | 0.00 | 0.00 | 33 | 1012.5 |
| 20260503200338 | 13 | 180 | 9.7 | 14.5 | 0.00 | 0.00 | 0.00 | 33 | 1012.5 |
| 20260503195836 | 13 | 8 | 3.2 | 14.5 | 0.00 | 0.00 | 0.00 | 34 | 1012.5 |
| 20260503195332 | 13 | 248 | 6.4 | 11.3 | 0.00 | 0.00 | 0.00 | 35 | 1012.4 |
| 20260503194830 | 13 | 233 | 0.0 | 9.7 | 0.00 | 0.00 | 0.00 | 36 | 1012.7 |
| 20260503194325 | 13 | 167 | 4.8 | 14.5 | 0.00 | 0.00 | 0.00 | 33 | 1012.8 |
| 20260503193822 | 13 | 304 | 8.0 | 14.5 | 0.00 | 0.00 | 0.00 | 35 | 1012.7 |
| 20260503193318 | 14 | 253 | 6.4 | 17.7 | 0.00 | 0.00 | 0.00 | 40 | 1012.6 |
| 20260503192814 | 13 | 50 | 6.4 | 8.0 | 0.00 | 0.00 | 0.00 | 36 | 1012.8 |
| 20260503192309 | 13 | 351 | 6.4 | 17.7 | 0.00 | 0.00 | 0.00 | 34 | 1012.9 |
| 20260503191806 | 12 | 257 | 3.2 | 14.5 | 0.00 | 0.00 | 0.00 | 36 | 1012.8 |
| 20260503191303 | 12 | 320 | 3.2 | 16.1 | 0.00 | 0.00 | 0.00 | 37 | 1012.9 |
| 20260503190800 | 12 | 168 | 4.8 | 30.6 | 0.00 | 0.00 | 0.00 | 38 | 1013.2 |
| 20260503190256 | 13 | 301 | 14.5 | 24.1 | 0.00 | 0.00 | 0.00 | 35 | 1012.9 |
| 20260503185754 | 13 | 292 | 9.7 | 14.5 | 0.00 | 0.00 | 0.00 | 35 | 1013.2 |
| 20260503185249 | 13 | 149 | 6.4 | 20.9 | 0.00 | 0.00 | 0.00 | 33 | 1013.2 |
| 20260503184744 | 13 | 217 | 8.0 | 22.5 | 0.00 | 0.00 | 0.00 | 38 | 1013.2 |
| 20260503184241 | 13 | 310 | 3.2 | 12.9 | 0.00 | 0.00 | 0.00 | 35 | 1013.3 |
| 20260503183737 | 13 | 306 | 6.4 | 17.7 | 0.00 | 0.00 | 0.00 | 36 | 1013.5 |
| 20260503183235 | 12 | 325 | 9.7 | 16.1 | 0.00 | 0.00 | 0.00 | 35 | 1013.4 |
| 20260503182732 | 12 | 43 | 11.3 | 22.5 | 0.00 | 0.00 | 0.00 | 39 | 1013.3 |
| 20260503182231 | 12 | 332 | 3.2 | 17.7 | 0.00 | 0.00 | 0.00 | 35 | 1013.3 |
| 20260503181727 | 12 | 11 | 9.7 | 25.7 | 0.00 | 0.00 | 0.00 | 37 | 1013.5 |
| 20260503181224 | 12 | 202 | 3.2 | 19.3 | 0.00 | 0.00 | 0.00 | 38 | 1013.4 |
| 20260503180720 | 12 | 355 | 8.0 | 16.1 | 0.00 | 0.00 | 0.00 | 40 | 1013.4 |
| 20260503180219 | 12 | 198 | 9.7 | 14.5 | 0.00 | 0.00 | 0.00 | 39 | 1013.2 |
| 20260503175715 | 12 | 255 | 6.4 | 12.9 | 0.00 | 0.00 | 0.00 | 37 | 1013.4 |
| 20260503175213 | 12 | 236 | 3.2 | 14.5 | 0.00 | 0.00 | 0.00 | 40 | 1013.6 |
| 20260503174709 | 12 | 10 | 6.4 | 14.5 | 0.00 | 0.00 | 0.00 | 38 | 1013.8 |
| 20260503174207 | 12 | 259 | 11.3 | 12.9 | 0.00 | 0.00 | 0.00 | 38 | 1013.6 |
| 20260503173702 | 12 | 34 | 6.4 | 8.0 | 0.00 | 0.00 | 0.00 | 38 | 1013.6 |
| 20260503173158 | 12 | 206 | 6.4 | 20.9 | 0.00 | 0.00 | 0.00 | 42 | 1013.6 |
| 20260503172655 | 12 | 311 | 8.0 | 17.7 | 0.00 | 0.00 | 0.00 | 42 | 1013.8 |
| 20260503172152 | 11 | 322 | 9.7 | 16.1 | 0.00 | 0.00 | 0.00 | 38 | 1013.9 |
| 20260503171649 | 11 | 273 | 20.9 | 30.6 | 0.00 | 0.00 | 0.00 | 37 | 1014.1 |
| 20260503171146 | 12 | 340 | 12.9 | 24.1 | 0.00 | 0.00 | 0.00 | 39 | 1013.8 |
| 20260503170643 | 12 | 218 | 3.2 | 9.7 | 0.00 | 0.00 | 0.00 | 45 | 1013.9 |
| 20260503170140 | 12 | 192 | 6.4 | 8.0 | 0.00 | 0.00 | 0.00 | 41 | 1014.0 |
| 20260503150531 | 10 | 296 | 27.4 | 27.4 | 0.00 | 0.00 | 0.00 | 44 | 1014.8 |
| 20260503130926 | 6 | 42 | 6.4 | 8.0 | 0.00 | 0.00 | 0.00 | 60 | 1014.9 |
| 20260503130424 | 6 | 175 | 4.8 | 11.3 | 0.00 | 0.00 | 0.00 | 59 | 1015.2 |
| 20260503110823 | 2 | 28 | 4.8 | 8.0 | 0.00 | 0.00 | 0.00 | 77 | 1014.5 |
| 20260503110320 | 1 | 217 | 3.2 | 6.4 | 0.00 | 0.00 | 0.00 | 77 | 1014.6 |
| 20260503100246 | 0 | 80 | 1.6 | 4.8 | 0.00 | 0.00 | 0.00 | 81 | 1014.0 |
| 20260503090206 | 0 | 99 | 0.0 | 3.2 | 0.00 | 0.00 | 0.00 | 90 | 1013.9 |
| 20260503081636 | 0 | 126 | 3.2 | 3.2 | 0.00 | 0.00 | 0.00 | 89 | 1013.5 |
| 20260503081132 | 0 | 129 | 0.0 | 3.2 | 0.00 | 0.00 | 0.00 | 89 | 1013.8 |
| 20260503080628 | 0 | 131 | 1.6 | 1.6 | 0.00 | 0.00 | 0.00 | 89 | 1013.4 |
| 20260503080126 | 0 | 60 | 1.6 | 3.2 | 0.00 | 0.00 | 0.00 | 88 | 1013.4 |
| 20260503072602 | 0 | 120 | 1.6 | 1.6 | 0.00 | 0.00 | 0.00 | 85 | 1013.3 |
| 20260503072100 | 0 | 120 | 1.6 | 3.2 | 0.00 | 0.00 | 0.00 | 84 | 1013.3 |
| 20260503071556 | 0 | 154 | 1.6 | 3.2 | 0.00 | 0.00 | 0.00 | 85 | 1013.0 |
| 20260503071053 | 0 | 125 | 0.0 | 3.2 | 0.00 | 0.00 | 0.00 | 85 | 1013.2 |
| 20260503070549 | 0 | 103 | 1.6 | 3.2 | 0.00 | 0.00 | 0.00 | 85 | 1013.2 |
| 20260503055009 | 1 | 151 | 1.6 | 3.2 | 0.00 | 0.00 | 0.00 | 83 | 1013.2 |
| 20260503054504 | 1 | 336 | 0.0 | 1.6 | 0.00 | 0.00 | 0.00 | 82 | 1013.2 |
| 20260503054002 | 1 | 129 | 0.0 | 3.2 | 0.00 | 0.00 | 0.00 | 82 | 1013.2 |
| 20260503053500 | 1 | 131 | 3.2 | 3.2 | 0.00 | 0.00 | 0.00 | 82 | 1013.4 |
| 20260503052956 | 1 | 55 | 0.0 | 1.6 | 0.00 | 0.00 | 0.00 | 83 | 1013.5 |
| 20260503052454 | 1 | 145 | 1.6 | 3.2 | 0.00 | 0.00 | 0.00 | 82 | 1013.3 |
| 20260503051950 | 1 | 107 | 1.6 | 3.2 | 0.00 | 0.00 | 0.00 | 81 | 1013.4 |
| 20260503051446 | 1 | 114 | 3.2 | 3.2 | 0.00 | 0.00 | 0.00 | 82 | 1013.5 |
| 20260503050943 | 1 | 102 | 1.6 | 3.2 | 0.00 | 0.00 | 0.00 | 80 | 1013.5 |
| 20260503050439 | 1 | 112 | 3.2 | 3.2 | 0.00 | 0.00 | 0.00 | 78 | 1013.4 |
| 20260503045937 | 2 | 142 | 3.2 | 3.2 | 0.00 | 0.00 | 0.00 | 78 | 1013.4 |
| 20260503045434 | 2 | 124 | 1.6 | 1.6 | 0.00 | 0.00 | 0.00 | 76 | 1013.5 |
| 20260503044931 | 2 | 140 | 0.0 | 4.8 | 0.00 | 0.00 | 0.00 | 73 | 1013.4 |
| 20260503044428 | 2 | 103 | 3.2 | 6.4 | 0.00 | 0.00 | 0.00 | 74 | 1013.4 |
| 20260503043926 | 2 | 119 | 3.2 | 4.8 | 0.00 | 0.00 | 0.00 | 75 | 1013.4 |
| 20260503043421 | 3 | 180 | 1.6 | 3.2 | 0.00 | 0.00 | 0.00 | 71 | 1013.3 |
| 20260503042918 | 3 | 253 | 3.2 | 6.4 | 0.00 | 0.00 | 0.00 | 69 | 1013.6 |
| 20260503042415 | 3 | 70 | 3.2 | 3.2 | 0.00 | 0.00 | 0.00 | 72 | 1013.3 |
| 20260503041911 | 3 | 27 | 3.2 | 6.4 | 0.00 | 0.00 | 0.00 | 69 | 1013.5 |
| 20260503041408 | 3 | 45 | 4.8 | 6.4 | 0.00 | 0.00 | 0.00 | 69 | 1013.4 |
| 20260503040906 | 3 | 19 | 0.0 | 1.6 | 0.00 | 0.00 | 0.00 | 71 | 1013.4 |
| 20260503040403 | 3 | 128 | 4.8 | 4.8 | 0.00 | 0.00 | 0.00 | 74 | 1013.5 |
| 20260503035900 | 3 | 144 | 1.6 | 3.2 | 0.00 | 0.03 | 0.03 | 72 | 1013.6 |
| 20260503035357 | 3 | 164 | 1.6 | 3.2 | 0.00 | 0.03 | 0.03 | 72 | 1013.5 |
| 20260503034854 | 3 | 106 | 3.2 | 4.8 | 0.00 | 0.03 | 0.03 | 71 | 1013.3 |
| 20260503034352 | 3 | 92 | 0.0 | 3.2 | 0.00 | 0.03 | 0.03 | 73 | 1013.6 |
| 20260503033849 | 3 | 109 | 3.2 | 3.2 | 0.00 | 0.03 | 0.03 | 73 | 1013.6 |
| 20260503033346 | 3 | 154 | 0.0 | 3.2 | 0.00 | 0.03 | 0.03 | 73 | 1013.6 |
| 20260503032844 | 4 | 131 | 1.6 | 3.2 | 0.00 | 0.03 | 0.03 | 73 | 1013.5 |
| 20260503032343 | 4 | 222 | 1.6 | 3.2 | 0.00 | 0.03 | 0.03 | 71 | 1013.6 |
| 20260503031840 | 4 | 103 | 3.2 | 3.2 | 0.00 | 0.03 | 0.03 | 71 | 1013.6 |
| 20260503031337 | 4 | 143 | 1.6 | 3.2 | 0.00 | 0.03 | 0.03 | 71 | 1014.0 |
| 20260503030833 | 4 | 124 | 3.2 | 3.2 | 0.00 | 0.03 | 0.03 | 69 | 1013.9 |
| 20260503030330 | 4 | 89 | 0.0 | 3.2 | 0.00 | 0.03 | 0.03 | 68 | 1013.9 |
| 20260503025827 | 5 | 121 | 3.2 | 3.2 | 0.00 | 0.03 | 0.03 | 71 | 1013.9 |
| 20260503025324 | 5 | 137 | 1.6 | 3.2 | 0.00 | 0.03 | 0.03 | 69 | 1014.0 |
| 20260503024821 | 5 | 122 | 1.6 | 1.6 | 0.00 | 0.03 | 0.03 | 68 | 1014.0 |
| 20260503024318 | 5 | 104 | 3.2 | 3.2 | 0.00 | 0.03 | 0.03 | 67 | 1014.1 |
| 20260503023815 | 5 | 110 | 0.0 | 3.2 | 0.00 | 0.03 | 0.03 | 68 | 1014.1 |
| 20260503023312 | 5 | 98 | 0.0 | 3.2 | 0.00 | 0.03 | 0.03 | 66 | 1014.1 |
| 20260503022809 | 5 | 147 | 3.2 | 3.2 | 0.00 | 0.03 | 0.03 | 65 | 1014.0 |
| 20260503022308 | 5 | 144 | 3.2 | 6.4 | 0.00 | 0.03 | 0.03 | 65 | 1014.2 |
| 20260503021805 | 5 | 26 | 4.8 | 6.4 | 0.00 | 0.03 | 0.03 | 65 | 1014.0 |
| 20260503021301 | 5 | 17 | 6.4 | 16.1 | 0.00 | 0.03 | 0.03 | 64 | 1013.8 |
| 20260503020759 | 5 | 349 | 8.0 | 16.1 | 0.00 | 0.03 | 0.03 | 65 | 1013.6 |
| 20260503020257 | 5 | 109 | 0.0 | 9.7 | 0.00 | 0.03 | 0.03 | 66 | 1013.8 |
| 20260503015753 | 5 | 40 | 3.2 | 9.7 | 0.00 | 0.03 | 0.03 | 67 | 1013.9 |
| 20260503015250 | 5 | 42 | 11.3 | 19.3 | 0.00 | 0.03 | 0.03 | 66 | 1013.8 |
| 20260503014745 | 5 | 285 | 4.8 | 16.1 | 0.00 | 0.03 | 0.03 | 68 | 1013.6 |
| 20260503014244 | 5 | 338 | 8.0 | 12.9 | 0.00 | 0.03 | 0.03 | 68 | 1013.6 |
| 20260503013740 | 5 | 106 | 0.0 | 3.2 | 0.00 | 0.03 | 0.03 | 72 | 1013.6 |
| 20260503013238 | 5 | 53 | 0.0 | 4.8 | 0.00 | 0.03 | 0.03 | 72 | 1013.8 |
| 20260503012735 | 5 | 175 | 0.0 | 6.4 | 0.00 | 0.03 | 0.03 | 72 | 1013.9 |
| 20260503012232 | 5 | 225 | 0.0 | 3.2 | 0.00 | 0.03 | 0.03 | 73 | 1013.5 |
| 20260503011729 | 5 | 335 | 3.2 | 6.4 | 0.00 | 0.03 | 0.03 | 73 | 1013.5 |
| 20260503011226 | 5 | 189 | 1.6 | 4.8 | 0.00 | 0.03 | 0.03 | 72 | 1013.6 |
| 20260503010722 | 5 | 157 | 0.0 | 8.0 | 0.00 | 0.03 | 0.03 | 72 | 1013.5 |
| 20260503010219 | 5 | 208 | 1.6 | 6.4 | 0.00 | 0.03 | 0.03 | 72 | 1013.4 |
| 20260503005716 | 5 | 171 | 3.2 | 4.8 | 0.00 | 0.03 | 0.03 | 72 | 1013.3 |
| 20260503005214 | 5 | 82 | 1.6 | 3.2 | 0.00 | 0.03 | 0.03 | 72 | 1013.4 |
| 20260503004710 | 5 | 124 | 1.6 | 3.2 | 0.00 | 0.03 | 0.03 | 71 | 1013.3 |
| 20260503004209 | 5 | 201 | 6.4 | 12.9 | 0.00 | 0.03 | 0.03 | 70 | 1013.2 |
| 20260503003705 | 5 | 170 | 4.8 | 9.7 | 0.00 | 0.03 | 0.03 | 71 | 1013.1 |
| 20260503003202 | 5 | 296 | 1.6 | 4.8 | 0.00 | 0.03 | 0.03 | 71 | 1013.2 |
| 20260503002659 | 5 | 140 | 1.6 | 4.8 | 0.00 | 0.03 | 0.03 | 70 | 1013.0 |
| 20260503002155 | 5 | 161 | 3.2 | 6.4 | 0.00 | 0.03 | 0.03 | 70 | 1013.2 |
| 20260503001651 | 5 | 173 | 6.4 | 8.0 | 0.00 | 0.03 | 0.03 | 70 | 1013.0 |
| 20260503001148 | 5 | 282 | 8.0 | 9.7 | 0.00 | 0.03 | 0.03 | 70 | 1013.0 |
| 20260503000646 | 5 | 161 | 3.2 | 6.4 | 0.00 | 0.03 | 0.03 | 69 | 1013.0 |
| 20260503000143 | 5 | 150 | 1.6 | 3.2 | 0.00 | 0.03 | 0.03 | 68 | 1013.1 |
| 20260502235640 | 5 | 316 | 4.8 | 6.4 | 0.00 | 0.03 | 0.03 | 68 | 1013.0 |
| 20260502235138 | 5 | 279 | 4.8 | 9.7 | 0.00 | 0.03 | 0.03 | 67 | 1013.1 |
| 20260502234633 | 5 | 117 | 0.0 | 4.8 | 0.00 | 0.03 | 0.03 | 67 | 1012.8 |
| 20260502234131 | 5 | 182 | 6.4 | 11.3 | 0.00 | 0.03 | 0.03 | 67 | 1013.1 |
| 20260502233627 | 6 | 14 | 3.2 | 3.2 | 0.00 | 0.03 | 0.03 | 68 | 1013.0 |
| 20260502233124 | 6 | 259 | 3.2 | 12.9 | 0.00 | 0.03 | 0.03 | 67 | 1012.9 |
| 20260502232619 | 6 | 235 | 6.4 | 14.5 | 0.00 | 0.03 | 0.03 | 68 | 1012.8 |
| 20260502232118 | 6 | 194 | 4.8 | 9.7 | 0.00 | 0.03 | 0.03 | 67 | 1012.8 |
| 20260502231614 | 6 | 10 | 0.0 | 8.0 | 0.00 | 0.03 | 0.03 | 69 | 1012.9 |
| 20260502231112 | 6 | 215 | 3.2 | 8.0 | 0.00 | 0.03 | 0.03 | 67 | 1012.8 |
| 20260502230610 | 6 | 263 | 3.2 | 6.4 | 0.00 | 0.03 | 0.03 | 68 | 1012.9 |
| 20260502230108 | 6 | 221 | 3.2 | 14.5 | 0.00 | 0.03 | 0.03 | 68 | 1012.7 |
| 20260502225603 | 6 | 290 | 4.8 | 9.7 | 0.00 | 0.03 | 0.03 | 67 | 1012.8 |
| 20260502225101 | 6 | 239 | 1.6 | 12.9 | 0.00 | 0.03 | 0.03 | 68 | 1012.7 |
| 20260502224556 | 6 | 189 | 3.2 | 6.4 | 0.00 | 0.03 | 0.03 | 69 | 1012.6 |
| 20260502224054 | 6 | 171 | 3.2 | 9.7 | 0.00 | 0.03 | 0.03 | 67 | 1012.6 |
| 20260502223552 | 6 | 21 | 3.2 | 14.5 | 0.00 | 0.03 | 0.03 | 66 | 1012.8 |
| 20260502223050 | 7 | 167 | 0.0 | 8.0 | 0.00 | 0.03 | 0.03 | 68 | 1012.7 |
| 20260502222547 | 6 | 214 | 12.9 | 12.9 | 0.00 | 0.03 | 0.03 | 67 | 1012.9 |
| 20260502222043 | 6 | 268 | 6.4 | 9.7 | 0.00 | 0.03 | 0.03 | 67 | 1012.6 |
| 20260502221539 | 6 | 129 | 4.8 | 9.7 | 0.00 | 0.03 | 0.03 | 67 | 1012.5 |
| 20260502221036 | 6 | 201 | 4.8 | 6.4 | 0.00 | 0.03 | 0.03 | 69 | 1012.7 |
| 20260502220532 | 6 | 212 | 0.0 | 9.7 | 0.00 | 0.03 | 0.03 | 69 | 1012.8 |
| 20260502220029 | 7 | 301 | 3.2 | 11.3 | 0.00 | 0.03 | 0.03 | 69 | 1012.7 |
| 20260502215526 | 7 | 322 | 6.4 | 14.5 | 0.00 | 0.03 | 0.03 | 67 | 1012.7 |
| 20260502215023 | 7 | 227 | 3.2 | 4.8 | 0.00 | 0.03 | 0.03 | 67 | 1012.6 |
| 20260502214520 | 7 | 272 | 4.8 | 9.7 | 0.00 | 0.03 | 0.03 | 66 | 1012.5 |
| 20260502214017 | 7 | 18 | 1.6 | 8.0 | 0.00 | 0.03 | 0.03 | 67 | 1012.5 |
| 20260502213514 | 7 | 300 | 4.8 | 11.3 | 0.00 | 0.03 | 0.03 | 67 | 1012.5 |
| 20260502213012 | 7 | 284 | 8.0 | 9.7 | 0.00 | 0.03 | 0.03 | 66 | 1012.3 |
| 20260502212510 | 8 | 323 | 4.8 | 12.9 | 0.00 | 0.03 | 0.03 | 63 | 1012.2 |
| 20260502212008 | 8 | 202 | 8.0 | 16.1 | 0.00 | 0.03 | 0.03 | 65 | 1012.5 |
| 20260502211503 | 7 | 264 | 8.0 | 8.0 | 0.00 | 0.03 | 0.03 | 69 | 1012.2 |
| 20260502211001 | 7 | 305 | 4.8 | 12.9 | 0.00 | 0.03 | 0.03 | 67 | 1012.3 |
| 20260502210457 | 7 | 138 | 0.0 | 4.8 | 0.00 | 0.03 | 0.03 | 71 | 1012.3 |
| 20260502205954 | 6 | 293 | 6.4 | 9.7 | 0.00 | 0.03 | 0.03 | 68 | 1012.4 |
| 20260502205450 | 6 | 253 | 8.0 | 11.3 | 0.00 | 0.03 | 0.03 | 68 | 1012.2 |
| 20260502204948 | 7 | 246 | 9.7 | 16.1 | 0.00 | 0.03 | 0.03 | 64 | 1012.1 |
| 20260502204445 | 7 | 198 | 6.4 | 8.0 | 0.00 | 0.03 | 0.03 | 62 | 1012.2 |
| 20260502203943 | 7 | 174 | 3.2 | 9.7 | 0.00 | 0.03 | 0.03 | 62 | 1012.1 |
| 20260502203439 | 7 | 129 | 3.2 | 14.5 | 0.00 | 0.03 | 0.03 | 62 | 1011.9 |
| 20260502202936 | 7 | 161 | 3.2 | 12.9 | 0.00 | 0.03 | 0.03 | 59 | 1012.2 |
| 20260502202432 | 7 | 296 | 4.8 | 12.9 | 0.00 | 0.03 | 0.03 | 58 | 1011.9 |
| 20260502201931 | 8 | 237 | 11.3 | 27.4 | 0.00 | 0.03 | 0.03 | 57 | 1012.0 |
| 20260502201426 | 8 | 232 | 8.0 | 20.9 | 0.00 | 0.03 | 0.03 | 55 | 1011.8 |